Time,TemperatureF,DewpointF,PressureIn,WindDirection,WindDirectionDegrees,WindSpeedMPH,WindSpeedGustMPH,Humidity,HourlyPrecipIn,Conditions,Clouds,dailyrainin,SoftwareType,DateUTC
2013-09-18 00:01:00,56.7,46.6,30.30,NE,45,2.0,4.0,69,0.00,,,0.00,meteohub,2013-09-18 04:01:00,
2013-09-18 00:02:00,56.7,46.6,30.30,NE,45,0.0,4.0,69,0.00,,,0.00,meteohub,2013-09-18 04:02:00,
2013-09-18 00:03:00,56.7,46.6,30.30,NE,45,0.0,4.0,69,0.00,,,0.00,meteohub,2013-09-18 04:03:00,
2013-09-18 00:08:00,56.5,46.4,30.30,ENE,68,0.0,4.0,69,0.00,,,0.00,meteohub,2013-09-18 04:08:00,
2013-09-18 00:13:00,56.5,46.8,30.30,ENE,68,0.0,4.0,70,0.00,,,0.00,meteohub,2013-09-18 04:13:00,
2013-09-18 00:18:00,56.3,46.6,30.30,ENE,68,0.0,4.0,70,0.00,,,0.00,meteohub,2013-09-18 04:18:00,
2013-09-18 00:23:00,56.3,46.9,30.30,NNW,338,0.0,4.0,71,0.00,,,0.00,meteohub,2013-09-18 04:23:00,
2013-09-18 00:28:00,55.9,47.1,30.30,NNW,338,0.0,0.0,72,0.00,,,0.00,meteohub,2013-09-18 04:28:00,
2013-09-18 00:33:00,55.8,47.3,30.30,NNW,338,0.0,0.0,73,0.00,,,0.00,meteohub,2013-09-18 04:33:00,
2013-09-18 00:38:00,55.6,47.1,30.30,NNW,338,0.0,0.0,73,0.00,,,0.00,meteohub,2013-09-18 04:38:00,
2013-09-18 00:43:00,55.2,47.5,30.30,NNW,338,0.0,0.0,75,0.00,,,0.00,meteohub,2013-09-18 04:43:00,
2013-09-18 00:48:00,55.2,47.8,30.30,NNW,338,0.0,0.0,76,0.00,,,0.00,meteohub,2013-09-18 04:48:00,
2013-09-18 00:53:00,55.0,48.0,30.30,NNW,338,0.0,0.0,77,0.00,,,0.00,meteohub,2013-09-18 04:53:00,
2013-09-18 00:58:00,55.0,48.4,30.30,ENE,68,0.0,0.0,78,0.00,,,0.00,meteohub,2013-09-18 04:58:00,
2013-09-18 01:03:00,54.9,48.6,30.30,NE,45,0.0,3.0,79,0.00,,,0.00,meteohub,2013-09-18 05:03:00,
2013-09-18 01:08:00,54.7,48.6,30.30,NNW,338,0.0,3.0,80,0.00,,,0.00,meteohub,2013-09-18 05:08:00,
2013-09-18 01:13:00,54.7,48.6,30.30,NNE,22,0.0,3.0,80,0.00,,,0.00,meteohub,2013-09-18 05:13:00,
2013-09-18 01:18:00,54.7,48.6,30.30,NW,315,0.0,3.0,80,0.00,,,0.00,meteohub,2013-09-18 05:18:00,
2013-09-18 01:23:00,54.5,48.7,30.30,NW,315,0.0,3.0,81,0.00,,,0.00,meteohub,2013-09-18 05:23:00,
2013-09-18 01:28:00,54.3,48.6,30.30,NW,315,0.0,3.0,81,0.00,,,0.00,meteohub,2013-09-18 05:28:00,
2013-09-18 01:31:00,54.3,48.6,30.30,NW,315,0.0,0.0,81,0.00,,,0.00,meteohub,2013-09-18 05:31:00,
2013-09-18 01:36:00,54.0,48.6,30.30,NW,315,0.0,0.0,82,0.00,,,0.00,meteohub,2013-09-18 05:36:00,
2013-09-18 01:41:00,53.8,48.4,30.30,NW,315,0.0,0.0,82,0.00,,,0.00,meteohub,2013-09-18 05:41:00,
2013-09-18 01:46:00,53.8,48.7,30.30,NW,315,0.0,0.0,83,0.00,,,0.00,meteohub,2013-09-18 05:46:00,
2013-09-18 01:51:00,53.6,48.9,30.30,NW,315,0.0,0.0,84,0.00,,,0.00,meteohub,2013-09-18 05:51:00,
2013-09-18 01:56:00,53.6,48.9,30.30,NW,315,0.0,0.0,84,0.00,,,0.00,meteohub,2013-09-18 05:56:00,
2013-09-18 02:01:00,53.4,49.1,30.30,NW,315,0.0,0.0,85,0.00,,,0.00,meteohub,2013-09-18 06:01:00,
2013-09-18 02:06:00,53.4,49.1,30.30,NW,315,0.0,0.0,85,0.00,,,0.00,meteohub,2013-09-18 06:06:00,
2013-09-18 02:11:00,53.2,48.9,30.30,NW,315,0.0,0.0,85,0.00,,,0.00,meteohub,2013-09-18 06:11:00,
2013-09-18 02:16:00,53.1,48.9,30.30,NW,315,0.0,0.0,86,0.00,,,0.00,meteohub,2013-09-18 06:16:00,
2013-09-18 02:21:00,52.9,48.7,30.30,NW,315,0.0,0.0,86,0.00,,,0.00,meteohub,2013-09-18 06:21:00,
2013-09-18 02:26:00,52.9,49.1,30.30,NW,315,0.0,0.0,87,0.00,,,0.00,meteohub,2013-09-18 06:26:00,
2013-09-18 02:31:00,52.7,49.3,30.30,NW,315,0.0,0.0,88,0.00,,,0.00,meteohub,2013-09-18 06:31:00,
2013-09-18 02:36:00,52.5,49.1,30.30,NW,315,0.0,0.0,88,0.00,,,0.00,meteohub,2013-09-18 06:36:00,
2013-09-18 02:41:00,52.5,49.5,30.30,NW,315,0.0,0.0,89,0.00,,,0.00,meteohub,2013-09-18 06:41:00,
2013-09-18 02:46:00,52.3,49.3,30.30,NW,315,0.0,0.0,89,0.00,,,0.00,meteohub,2013-09-18 06:46:00,
2013-09-18 02:51:00,52.3,49.3,30.30,NW,315,0.0,0.0,89,0.00,,,0.00,meteohub,2013-09-18 06:51:00,
2013-09-18 02:56:00,52.2,49.3,30.30,NW,315,0.0,0.0,90,0.00,,,0.00,meteohub,2013-09-18 06:56:00,
2013-09-18 03:01:00,52.2,49.3,30.30,NW,315,0.0,0.0,90,0.00,,,0.00,meteohub,2013-09-18 07:01:00,
2013-09-18 03:06:00,52.2,49.3,30.30,NW,315,0.0,0.0,90,0.00,,,0.00,meteohub,2013-09-18 07:06:00,
2013-09-18 03:11:00,52.2,49.6,30.30,NW,315,0.0,0.0,91,0.00,,,0.00,meteohub,2013-09-18 07:11:00,
2013-09-18 03:16:00,52.2,49.6,30.30,NW,315,0.0,0.0,91,0.00,,,0.00,meteohub,2013-09-18 07:16:00,
2013-09-18 03:21:00,52.0,49.5,30.30,NW,315,0.0,0.0,91,0.00,,,0.00,meteohub,2013-09-18 07:21:00,
2013-09-18 03:26:00,51.8,49.3,30.30,NW,315,0.0,0.0,91,0.00,,,0.00,meteohub,2013-09-18 07:26:00,
2013-09-18 03:31:00,51.8,49.3,30.30,NW,315,0.0,0.0,91,0.00,,,0.00,meteohub,2013-09-18 07:31:00,
2013-09-18 03:36:00,51.6,49.5,30.30,NW,315,0.0,0.0,92,0.00,,,0.00,meteohub,2013-09-18 07:36:00,
2013-09-18 03:41:00,51.4,49.3,30.27,NW,315,0.0,0.0,92,0.00,,,0.00,meteohub,2013-09-18 07:41:00,
2013-09-18 03:47:00,51.4,49.3,30.27,NW,315,0.0,0.0,92,0.00,,,0.00,meteohub,2013-09-18 07:47:00,
2013-09-18 03:52:00,51.4,49.3,30.27,North,0,0.0,3.0,92,0.00,,,0.00,meteohub,2013-09-18 07:52:00,
2013-09-18 03:57:00,51.4,49.3,30.27,North,0,0.0,3.0,92,0.00,,,0.00,meteohub,2013-09-18 07:57:00,
2013-09-18 04:02:00,51.4,49.5,30.27,NNW,338,0.0,3.0,93,0.00,,,0.00,meteohub,2013-09-18 08:02:00,
2013-09-18 04:07:00,51.3,49.3,30.27,NNW,338,0.0,0.0,93,0.00,,,0.00,meteohub,2013-09-18 08:07:00,
2013-09-18 04:12:00,51.1,49.1,30.27,NNW,338,0.0,0.0,93,0.00,,,0.00,meteohub,2013-09-18 08:12:00,
2013-09-18 04:17:00,50.9,48.9,30.27,NNW,338,0.0,0.0,93,0.00,,,0.00,meteohub,2013-09-18 08:17:00,
2013-09-18 04:22:00,50.9,49.3,30.27,NNW,338,0.0,0.0,94,0.00,,,0.00,meteohub,2013-09-18 08:22:00,
2013-09-18 04:27:00,50.7,49.1,30.27,NNW,338,0.0,0.0,94,0.00,,,0.00,meteohub,2013-09-18 08:27:00,
2013-09-18 04:32:00,50.7,49.1,30.27,NNW,338,0.0,0.0,94,0.00,,,0.00,meteohub,2013-09-18 08:32:00,
2013-09-18 04:37:00,50.9,49.3,30.27,NNW,338,0.0,0.0,94,0.00,,,0.00,meteohub,2013-09-18 08:37:00,
2013-09-18 04:42:00,50.7,49.1,30.27,NNW,338,0.0,0.0,94,0.00,,,0.00,meteohub,2013-09-18 08:42:00,
2013-09-18 04:47:00,50.5,49.1,30.27,NNW,338,0.0,0.0,95,0.00,,,0.00,meteohub,2013-09-18 08:47:00,
2013-09-18 04:52:00,50.5,49.1,30.27,NNW,338,0.0,0.0,95,0.00,,,0.00,meteohub,2013-09-18 08:52:00,
2013-09-18 04:57:00,50.5,49.1,30.27,NNW,338,0.0,0.0,95,0.00,,,0.00,meteohub,2013-09-18 08:57:00,
2013-09-18 05:02:00,50.4,48.9,30.27,NNW,338,0.0,0.0,95,0.00,,,0.00,meteohub,2013-09-18 09:02:00,
2013-09-18 05:07:00,50.4,49.3,30.27,NNW,338,0.0,0.0,96,0.00,,,0.00,meteohub,2013-09-18 09:07:00,
2013-09-18 05:12:00,50.5,49.5,30.27,NNW,338,0.0,0.0,96,0.00,,,0.00,meteohub,2013-09-18 09:12:00,
2013-09-18 05:17:00,50.4,49.3,30.27,NNW,338,0.0,0.0,96,0.00,,,0.00,meteohub,2013-09-18 09:17:00,
2013-09-18 05:22:00,50.5,49.5,30.27,NNW,338,0.0,0.0,96,0.00,,,0.00,meteohub,2013-09-18 09:22:00,
2013-09-18 05:27:00,50.4,49.3,30.27,NNW,338,0.0,0.0,96,0.00,,,0.00,meteohub,2013-09-18 09:27:00,
2013-09-18 05:32:00,50.4,49.5,30.27,NNW,338,0.0,0.0,97,0.00,,,0.00,meteohub,2013-09-18 09:32:00,
2013-09-18 05:37:00,50.4,49.5,30.27,NNW,338,0.0,0.0,97,0.00,,,0.00,meteohub,2013-09-18 09:37:00,
2013-09-18 05:42:00,50.2,49.3,30.27,NNW,338,0.0,0.0,97,0.00,,,0.00,meteohub,2013-09-18 09:42:00,
2013-09-18 05:47:00,50.2,49.3,30.27,NNW,338,0.0,0.0,97,0.00,,,0.00,meteohub,2013-09-18 09:47:00,
2013-09-18 05:52:00,50.4,49.5,30.27,NNW,338,0.0,0.0,97,0.00,,,0.00,meteohub,2013-09-18 09:52:00,
2013-09-18 05:57:00,50.4,49.5,30.27,NNW,338,0.0,0.0,97,0.00,,,0.00,meteohub,2013-09-18 09:57:00,
2013-09-18 06:02:00,50.5,50.0,30.27,NNW,338,0.0,0.0,98,0.00,,,0.00,meteohub,2013-09-18 10:02:00,
2013-09-18 06:07:00,50.4,49.8,30.27,ENE,68,0.0,0.0,98,0.00,,,0.00,meteohub,2013-09-18 10:07:00,
2013-09-18 06:12:00,50.4,49.8,30.30,ENE,68,0.0,0.0,98,0.00,,,0.00,meteohub,2013-09-18 10:12:00,
2013-09-18 06:17:00,50.2,49.6,30.30,ENE,68,0.0,0.0,98,0.00,,,0.00,meteohub,2013-09-18 10:17:00,
2013-09-18 06:22:00,50.2,49.6,30.30,ENE,68,0.0,0.0,98,0.00,,,0.00,meteohub,2013-09-18 10:22:00,
2013-09-18 06:27:00,50.2,49.6,30.30,ENE,68,0.0,0.0,98,0.00,,,0.00,meteohub,2013-09-18 10:27:00,
2013-09-18 06:32:00,50.0,49.5,30.30,NNE,22,0.0,0.0,98,0.00,,,0.00,meteohub,2013-09-18 10:32:00,
2013-09-18 06:37:00,50.0,49.5,30.30,West,270,0.0,0.0,98,0.00,,,0.00,meteohub,2013-09-18 10:37:00,
2013-09-18 06:42:00,50.0,49.5,30.30,West,270,0.0,0.0,98,0.00,,,0.00,meteohub,2013-09-18 10:42:00,
2013-09-18 06:47:00,49.8,49.3,30.30,West,270,0.0,0.0,98,0.00,,,0.00,meteohub,2013-09-18 10:47:00,
2013-09-18 06:52:00,50.0,49.5,30.30,West,270,0.0,0.0,98,0.00,,,0.00,meteohub,2013-09-18 10:52:00,
2013-09-18 06:57:00,50.0,49.5,30.30,NNW,338,0.0,0.0,98,0.00,,,0.00,meteohub,2013-09-18 10:57:00,
2013-09-18 07:02:00,50.0,49.5,30.30,NNW,338,0.0,0.0,98,0.00,,,0.00,meteohub,2013-09-18 11:02:00,
2013-09-18 07:07:00,50.2,49.6,30.30,ENE,68,0.0,0.0,98,0.00,,,0.00,meteohub,2013-09-18 11:07:00,
2013-09-18 07:12:00,50.7,50.2,30.30,North,0,0.0,0.0,98,0.00,,,0.00,meteohub,2013-09-18 11:12:00,
2013-09-18 07:17:00,50.9,50.4,30.30,NNE,22,0.0,3.0,98,0.00,,,0.00,meteohub,2013-09-18 11:17:00,
2013-09-18 07:22:00,50.9,50.4,30.30,NNE,22,0.0,3.0,98,0.00,,,0.00,meteohub,2013-09-18 11:22:00,
2013-09-18 07:27:00,51.1,50.5,30.30,North,0,0.0,3.0,98,0.00,,,0.00,meteohub,2013-09-18 11:27:00,
2013-09-18 07:32:00,51.1,50.5,30.30,North,0,0.0,0.0,98,0.00,,,0.00,meteohub,2013-09-18 11:32:00,
2013-09-18 07:37:00,51.1,50.5,30.30,ESE,112,0.0,0.0,98,0.00,,,0.00,meteohub,2013-09-18 11:37:00,
2013-09-18 07:42:00,51.4,50.9,30.30,NNE,22,0.0,0.0,98,0.00,,,0.00,meteohub,2013-09-18 11:42:00,
2013-09-18 07:47:00,51.6,51.1,30.30,NE,45,0.0,2.0,98,0.00,,,0.00,meteohub,2013-09-18 11:47:00,
2013-09-18 07:52:00,51.6,51.1,30.30,NE,45,0.0,2.0,98,0.00,,,0.00,meteohub,2013-09-18 11:52:00,
2013-09-18 07:57:00,51.8,51.3,30.30,NNW,338,0.0,3.0,98,0.00,,,0.00,meteohub,2013-09-18 11:57:00,
2013-09-18 08:02:00,52.0,51.4,30.30,NNW,338,0.0,3.0,98,0.00,,,0.00,meteohub,2013-09-18 12:02:00,
2013-09-18 08:07:00,52.3,51.8,30.30,ESE,112,0.0,3.0,98,0.00,,,0.00,meteohub,2013-09-18 12:07:00,
2013-09-18 08:12:00,52.5,52.0,30.30,ESE,112,0.0,2.0,98,0.00,,,0.00,meteohub,2013-09-18 12:12:00,
2013-09-18 08:17:00,52.9,52.3,30.30,North,0,3.0,3.0,98,0.00,,,0.00,meteohub,2013-09-18 12:17:00,
2013-09-18 08:22:00,53.2,52.7,30.30,North,0,0.0,4.0,98,0.00,,,0.00,meteohub,2013-09-18 12:22:00,
2013-09-18 08:27:00,53.4,52.9,30.30,NW,315,0.0,4.0,98,0.00,,,0.00,meteohub,2013-09-18 12:27:00,
2013-09-18 08:32:00,54.0,53.4,30.30,ESE,112,0.0,4.0,98,0.00,,,0.00,meteohub,2013-09-18 12:32:00,
2013-09-18 08:37:00,54.3,53.8,30.30,NW,315,4.0,4.0,98,0.00,,,0.00,meteohub,2013-09-18 12:37:00,
2013-09-18 08:42:00,55.0,54.0,30.30,NW,315,2.0,4.0,96,0.00,,,0.00,meteohub,2013-09-18 12:42:00,
2013-09-18 08:47:00,55.0,53.4,30.30,South,180,0.0,4.0,94,0.00,,,0.00,meteohub,2013-09-18 12:47:00,
2013-09-18 08:52:00,55.6,53.2,30.30,NNE,22,5.0,5.0,92,0.00,,,0.00,meteohub,2013-09-18 12:52:00,
2013-09-18 08:57:00,55.9,53.4,30.30,WNW,292,0.0,5.0,91,0.00,,,0.00,meteohub,2013-09-18 12:57:00,
2013-09-18 09:02:00,56.3,52.2,30.30,ENE,68,3.0,5.0,86,0.00,,,0.00,meteohub,2013-09-18 13:02:00,
2013-09-18 09:07:00,56.3,50.5,30.30,ESE,112,3.0,5.0,81,0.00,,,0.00,meteohub,2013-09-18 13:07:00,
2013-09-18 09:12:00,57.0,50.2,30.30,SE,135,3.0,5.0,78,0.00,,,0.00,meteohub,2013-09-18 13:12:00,
2013-09-18 09:17:00,57.4,49.1,30.30,SE,135,0.0,5.0,74,0.00,,,0.00,meteohub,2013-09-18 13:17:00,
2013-09-18 09:22:00,58.3,49.6,30.30,SW,225,3.0,5.0,73,0.00,,,0.00,meteohub,2013-09-18 13:22:00,
2013-09-18 09:27:00,59.0,48.4,30.30,South,180,4.0,5.0,68,0.00,,,0.00,meteohub,2013-09-18 13:27:00,
2013-09-18 09:32:00,59.5,47.8,30.30,SW,225,3.0,4.0,65,0.00,,,0.00,meteohub,2013-09-18 13:32:00,
2013-09-18 09:37:00,60.1,46.6,30.30,NNW,338,2.0,4.0,61,0.00,,,0.00,meteohub,2013-09-18 13:37:00,
2013-09-18 09:42:00,60.1,45.7,30.30,NNW,338,3.0,4.0,59,0.00,,,0.00,meteohub,2013-09-18 13:42:00,
2013-09-18 09:47:00,59.5,43.3,30.30,East,90,0.0,6.0,55,0.00,,,0.00,meteohub,2013-09-18 13:47:00,
2013-09-18 09:52:00,59.7,45.9,30.30,South,180,3.0,6.0,60,0.00,,,0.00,meteohub,2013-09-18 13:52:00,
2013-09-18 09:57:00,60.3,45.0,30.30,ENE,68,0.0,6.0,57,0.00,,,0.00,meteohub,2013-09-18 13:57:00,
2013-09-18 10:02:00,60.8,45.5,30.30,ESE,112,0.0,6.0,57,0.00,,,0.00,meteohub,2013-09-18 14:02:00,
2013-09-18 10:07:00,60.8,44.1,30.30,ENE,68,3.0,5.0,54,0.00,,,0.00,meteohub,2013-09-18 14:07:00,
2013-09-18 10:12:00,61.0,43.7,30.30,NNW,338,4.0,5.0,53,0.00,,,0.00,meteohub,2013-09-18 14:12:00,
2013-09-18 10:17:00,61.3,44.1,30.30,NNW,338,0.0,4.0,53,0.00,,,0.00,meteohub,2013-09-18 14:17:00,
2013-09-18 10:22:00,61.9,44.6,30.30,North,0,4.0,5.0,53,0.00,,,0.00,meteohub,2013-09-18 14:22:00,
2013-09-18 10:27:00,62.2,43.9,30.30,NNW,338,5.0,6.0,51,0.00,,,0.00,meteohub,2013-09-18 14:27:00,
2013-09-18 10:33:00,62.4,44.1,30.30,NNW,338,4.0,6.0,51,0.00,,,0.00,meteohub,2013-09-18 14:33:00,
2013-09-18 10:38:00,62.4,44.1,30.30,ENE,68,3.0,6.0,51,0.00,,,0.00,meteohub,2013-09-18 14:38:00,
2013-09-18 10:43:00,62.6,44.2,30.30,SSW,202,2.0,8.0,51,0.00,,,0.00,meteohub,2013-09-18 14:43:00,
2013-09-18 10:48:00,63.0,45.1,30.30,ENE,68,3.0,8.0,52,0.00,,,0.00,meteohub,2013-09-18 14:48:00,
2013-09-18 10:53:00,63.1,44.2,30.30,North,0,5.0,7.0,50,0.00,,,0.00,meteohub,2013-09-18 14:53:00,
2013-09-18 10:58:00,63.1,43.7,30.30,ENE,68,4.0,6.0,49,0.00,,,0.00,meteohub,2013-09-18 14:58:00,
2013-09-18 11:03:00,63.9,45.3,30.30,NNW,338,5.0,7.0,51,0.00,,,0.00,meteohub,2013-09-18 15:03:00,
2013-09-18 11:08:00,64.4,44.2,30.30,NNW,338,4.0,7.0,48,0.00,,,0.00,meteohub,2013-09-18 15:08:00,
2013-09-18 11:13:00,64.6,42.8,30.30,NNW,338,6.0,7.0,45,0.00,,,0.00,meteohub,2013-09-18 15:13:00,
2013-09-18 11:18:00,65.7,43.2,30.30,ESE,112,3.0,7.0,44,0.00,,,0.00,meteohub,2013-09-18 15:18:00,
2013-09-18 11:23:00,66.0,42.8,30.30,NNW,338,0.0,6.0,43,0.00,,,0.00,meteohub,2013-09-18 15:23:00,
2013-09-18 11:28:00,66.7,44.1,30.30,ESE,112,3.0,6.0,44,0.00,,,0.00,meteohub,2013-09-18 15:28:00,
2013-09-18 11:33:00,66.6,43.3,30.30,NNW,338,0.0,6.0,43,0.00,,,0.00,meteohub,2013-09-18 15:33:00,
2013-09-18 11:38:00,66.2,43.7,30.30,NNE,22,2.0,6.0,44,0.00,,,0.00,meteohub,2013-09-18 15:38:00,
2013-09-18 11:43:00,66.2,43.7,30.30,SW,225,0.0,6.0,44,0.00,,,0.00,meteohub,2013-09-18 15:43:00,
2013-09-18 11:48:00,66.6,43.3,30.30,NE,45,4.0,6.0,43,0.00,,,0.00,meteohub,2013-09-18 15:48:00,
2013-09-18 11:53:00,67.1,44.4,30.30,ENE,68,3.0,6.0,44,0.00,,,0.00,meteohub,2013-09-18 15:53:00,
2013-09-18 11:58:00,67.6,44.4,30.30,NNW,338,5.0,7.0,43,0.00,,,0.00,meteohub,2013-09-18 15:58:00,
2013-09-18 12:01:00,67.3,42.1,30.30,North,0,6.0,7.0,40,0.00,,,0.00,meteohub,2013-09-18 16:01:00,
2013-09-18 12:06:00,68.2,43.0,30.30,NNE,22,2.0,7.0,40,0.00,,,0.00,meteohub,2013-09-18 16:06:00,
2013-09-18 12:11:00,68.5,41.2,30.30,ENE,68,4.0,6.0,37,0.00,,,0.00,meteohub,2013-09-18 16:11:00,
2013-09-18 12:16:00,70.3,42.8,30.30,ESE,112,3.0,6.0,37,0.00,,,0.00,meteohub,2013-09-18 16:16:00,
2013-09-18 12:21:00,69.8,40.1,30.30,West,270,3.0,6.0,34,0.00,,,0.00,meteohub,2013-09-18 16:21:00,
2013-09-18 12:26:00,69.8,40.1,30.27,NE,45,4.0,6.0,34,0.00,,,0.00,meteohub,2013-09-18 16:26:00,
2013-09-18 12:31:00,70.7,42.4,30.27,NNE,22,4.0,6.0,36,0.00,,,0.00,meteohub,2013-09-18 16:31:00,
2013-09-18 12:36:00,70.7,41.0,30.27,NNW,338,4.0,6.0,34,0.00,,,0.00,meteohub,2013-09-18 16:36:00,
2013-09-18 12:41:00,71.4,41.5,30.27,ESE,112,3.0,6.0,34,0.00,,,0.00,meteohub,2013-09-18 16:41:00,
2013-09-18 12:46:00,70.3,39.9,30.27,NNE,22,4.0,6.0,33,0.00,,,0.00,meteohub,2013-09-18 16:46:00,
2013-09-18 12:51:00,69.8,40.1,30.27,NW,315,4.0,8.0,34,0.00,,,0.00,meteohub,2013-09-18 16:51:00,
2013-09-18 12:56:00,70.7,41.0,30.27,NNW,338,0.0,8.0,34,0.00,,,0.00,meteohub,2013-09-18 16:56:00,
2013-09-18 13:01:00,71.8,41.2,30.27,ESE,112,3.0,8.0,33,0.00,,,0.00,meteohub,2013-09-18 17:01:00,
2013-09-18 13:06:00,71.8,40.3,30.27,SE,135,0.0,6.0,32,0.00,,,0.00,meteohub,2013-09-18 17:06:00,
2013-09-18 13:11:00,71.4,40.1,30.27,WNW,292,0.0,6.0,32,0.00,,,0.00,meteohub,2013-09-18 17:11:00,
2013-09-18 13:16:00,72.0,40.5,30.27,SE,135,2.0,5.0,32,0.00,,,0.00,meteohub,2013-09-18 17:16:00,
2013-09-18 13:21:00,71.6,40.1,30.27,SE,135,0.0,5.0,32,0.00,,,0.00,meteohub,2013-09-18 17:21:00,
2013-09-18 13:26:00,71.2,39.9,30.27,ESE,112,0.0,4.0,32,0.00,,,0.00,meteohub,2013-09-18 17:26:00,
2013-09-18 13:32:00,71.8,40.3,30.27,ESE,112,0.0,4.0,32,0.00,,,0.00,meteohub,2013-09-18 17:32:00,
2013-09-18 13:37:00,72.9,42.1,30.27,NE,45,3.0,4.0,33,0.00,,,0.00,meteohub,2013-09-18 17:37:00,
2013-09-18 13:42:00,72.9,41.4,30.25,SE,135,3.0,4.0,32,0.00,,,0.00,meteohub,2013-09-18 17:42:00,
2013-09-18 13:47:00,72.3,40.8,30.25,South,180,0.0,5.0,32,0.00,,,0.00,meteohub,2013-09-18 17:47:00,
2013-09-18 13:52:00,72.3,40.8,30.25,ESE,112,3.0,5.0,32,0.00,,,0.00,meteohub,2013-09-18 17:52:00,
2013-09-18 13:57:00,72.0,40.5,30.25,NNE,22,0.0,5.0,32,0.00,,,0.00,meteohub,2013-09-18 17:57:00,
2013-09-18 14:03:00,72.1,40.6,30.25,ESE,112,0.0,5.0,32,0.00,,,0.00,meteohub,2013-09-18 18:03:00,
2013-09-18 14:08:00,73.0,41.4,30.25,ESE,112,0.0,5.0,32,0.00,,,0.00,meteohub,2013-09-18 18:08:00,
2013-09-18 14:13:00,72.9,40.5,30.25,SW,225,4.0,5.0,31,0.00,,,0.00,meteohub,2013-09-18 18:13:00,
2013-09-18 14:18:00,72.3,39.9,30.25,NNE,22,4.0,6.0,31,0.00,,,0.00,meteohub,2013-09-18 18:18:00,
2013-09-18 14:23:00,72.9,40.5,30.25,ESE,112,3.0,6.0,31,0.00,,,0.00,meteohub,2013-09-18 18:23:00,
2013-09-18 14:29:00,73.4,40.1,30.25,South,180,3.0,6.0,30,0.00,,,0.00,meteohub,2013-09-18 18:29:00,
2013-09-18 14:34:00,74.1,40.6,30.25,ESE,112,3.0,5.0,30,0.00,,,0.00,meteohub,2013-09-18 18:34:00,
2013-09-18 14:39:00,73.9,40.5,30.25,SW,225,0.0,5.0,30,0.00,,,0.00,meteohub,2013-09-18 18:39:00,
2013-09-18 14:44:00,74.7,39.4,30.22,SSE,158,0.0,5.0,28,0.00,,,0.00,meteohub,2013-09-18 18:44:00,
2013-09-18 14:49:00,74.8,37.6,30.22,NNW,338,4.0,5.0,26,0.00,,,0.00,meteohub,2013-09-18 18:49:00,
2013-09-18 14:54:00,74.7,38.5,30.22,East,90,3.0,5.0,27,0.00,,,0.00,meteohub,2013-09-18 18:54:00,
2013-09-18 14:59:00,75.0,38.8,30.22,SE,135,0.0,4.0,27,0.00,,,0.00,meteohub,2013-09-18 18:59:00,
2013-09-18 15:04:00,75.6,39.2,30.22,West,270,0.0,4.0,27,0.00,,,0.00,meteohub,2013-09-18 19:04:00,
2013-09-18 15:09:00,74.3,36.1,30.22,North,0,3.0,4.0,25,0.00,,,0.00,meteohub,2013-09-18 19:09:00,
2013-09-18 15:14:00,75.2,37.0,30.22,South,180,3.0,4.0,25,0.00,,,0.00,meteohub,2013-09-18 19:14:00,
2013-09-18 15:19:00,76.1,40.6,30.22,NE,45,0.0,6.0,28,0.00,,,0.00,meteohub,2013-09-18 19:19:00,
2013-09-18 15:25:00,76.1,37.8,30.22,ESE,112,0.0,6.0,25,0.00,,,0.00,meteohub,2013-09-18 19:25:00,
2013-09-18 15:30:00,76.5,37.9,30.22,SE,135,3.0,5.0,25,0.00,,,0.00,meteohub,2013-09-18 19:30:00,
2013-09-18 15:35:00,76.6,37.2,30.22,SE,135,0.0,5.0,24,0.00,,,0.00,meteohub,2013-09-18 19:35:00,
2013-09-18 15:40:00,76.3,36.9,30.22,West,270,0.0,4.0,24,0.00,,,0.00,meteohub,2013-09-18 19:40:00,
2013-09-18 15:45:00,76.1,35.6,30.22,West,270,0.0,4.0,23,0.00,,,0.00,meteohub,2013-09-18 19:45:00,
2013-09-18 15:50:00,76.1,35.6,30.22,NE,45,4.0,4.0,23,0.00,,,0.00,meteohub,2013-09-18 19:50:00,
2013-09-18 15:55:00,75.9,36.5,30.22,NE,45,3.0,3.0,24,0.00,,,0.00,meteohub,2013-09-18 19:55:00,
2013-09-18 16:00:00,75.4,35.1,30.22,NNE,22,3.0,4.0,23,0.00,,,0.00,meteohub,2013-09-18 20:00:00,
2013-09-18 16:05:00,75.6,34.0,30.22,NNW,338,0.0,4.0,22,0.00,,,0.00,meteohub,2013-09-18 20:05:00,
2013-09-18 16:10:00,76.1,34.5,30.22,West,270,2.0,5.0,22,0.00,,,0.00,meteohub,2013-09-18 20:10:00,
2013-09-18 16:15:00,77.4,35.6,30.22,SSW,202,2.0,5.0,22,0.00,,,0.00,meteohub,2013-09-18 20:15:00,
2013-09-18 16:20:00,77.7,37.0,30.22,SSE,158,2.0,4.0,23,0.00,,,0.00,meteohub,2013-09-18 20:20:00,
2013-09-18 16:25:00,77.7,37.0,30.22,SSW,202,0.0,4.0,23,0.00,,,0.00,meteohub,2013-09-18 20:25:00,
2013-09-18 16:30:00,76.3,35.8,30.19,SW,225,3.0,5.0,23,0.00,,,0.00,meteohub,2013-09-18 20:30:00,
2013-09-18 16:35:00,75.7,35.2,30.19,SW,225,0.0,5.0,23,0.00,,,0.00,meteohub,2013-09-18 20:35:00,
2013-09-18 16:40:00,76.1,35.6,30.19,SW,225,0.0,5.0,23,0.00,,,0.00,meteohub,2013-09-18 20:40:00,
2013-09-18 16:46:00,75.7,36.3,30.19,SW,225,0.0,4.0,24,0.00,,,0.00,meteohub,2013-09-18 20:46:00,
2013-09-18 16:51:00,74.8,38.7,30.19,SW,225,0.0,4.0,27,0.00,,,0.00,meteohub,2013-09-18 20:51:00,
2013-09-18 16:56:00,74.7,42.1,30.19,SW,225,0.0,0.0,31,0.00,,,0.00,meteohub,2013-09-18 20:56:00,
2013-09-18 17:01:00,73.2,41.5,30.19,SW,225,0.0,0.0,32,0.00,,,0.00,meteohub,2013-09-18 21:01:00,
2013-09-18 17:03:00,72.5,41.0,30.19,SW,225,0.0,0.0,32,0.00,,,0.00,meteohub,2013-09-18 21:03:00,
2013-09-18 17:07:00,72.1,39.9,30.19,SW,225,0.0,0.0,31,0.00,,,0.00,meteohub,2013-09-18 21:07:00,
2013-09-18 17:12:00,71.8,40.3,30.19,SW,225,0.0,0.0,32,0.00,,,0.00,meteohub,2013-09-18 21:12:00,
2013-09-18 17:19:00,72.9,42.1,30.19,SW,225,0.0,0.0,33,0.00,,,0.00,meteohub,2013-09-18 21:19:00,
2013-09-18 17:24:00,74.1,41.5,30.19,SW,225,0.0,0.0,31,0.00,,,0.00,meteohub,2013-09-18 21:24:00,
2013-09-18 17:29:00,74.1,39.0,30.19,SW,225,0.0,2.0,28,0.00,,,0.00,meteohub,2013-09-18 21:29:00,
2013-09-18 17:34:00,73.8,40.5,30.19,SW,225,0.0,2.0,30,0.00,,,0.00,meteohub,2013-09-18 21:34:00,
2013-09-18 17:39:00,72.3,39.9,30.19,WNW,292,2.0,3.0,31,0.00,,,0.00,meteohub,2013-09-18 21:39:00,
2013-09-18 17:44:00,72.1,39.9,30.19,WNW,292,0.0,4.0,31,0.00,,,0.00,meteohub,2013-09-18 21:44:00,
2013-09-18 17:50:00,71.4,40.1,30.19,WNW,292,0.0,4.0,32,0.00,,,0.00,meteohub,2013-09-18 21:50:00,
2013-09-18 17:55:00,70.7,41.0,30.19,WNW,292,0.0,0.0,34,0.00,,,0.00,meteohub,2013-09-18 21:55:00,
2013-09-18 18:00:00,70.0,41.0,30.19,WNW,292,0.0,0.0,35,0.00,,,0.00,meteohub,2013-09-18 22:00:00,
2013-09-18 18:05:00,69.3,41.2,30.19,WNW,292,0.0,0.0,36,0.00,,,0.00,meteohub,2013-09-18 22:05:00,
2013-09-18 18:10:00,68.5,43.3,30.19,WNW,292,0.0,0.0,40,0.00,,,0.00,meteohub,2013-09-18 22:10:00,
2013-09-18 18:15:00,68.2,44.2,30.19,WNW,292,0.0,0.0,42,0.00,,,0.00,meteohub,2013-09-18 22:15:00,
2013-09-18 18:20:00,67.8,45.1,30.19,WNW,292,0.0,0.0,44,0.00,,,0.00,meteohub,2013-09-18 22:20:00,
2013-09-18 18:25:00,67.5,46.0,30.19,WNW,292,0.0,0.0,46,0.00,,,0.00,meteohub,2013-09-18 22:25:00,
2013-09-18 18:31:00,67.3,46.4,30.19,WNW,292,0.0,0.0,47,0.00,,,0.00,meteohub,2013-09-18 22:31:00,
2013-09-18 18:36:00,66.9,46.6,30.19,WNW,292,0.0,0.0,48,0.00,,,0.00,meteohub,2013-09-18 22:36:00,
2013-09-18 18:41:00,66.6,47.3,30.19,WNW,292,0.0,0.0,50,0.00,,,0.00,meteohub,2013-09-18 22:41:00,
2013-09-18 18:46:00,66.4,48.2,30.19,WNW,292,0.0,0.0,52,0.00,,,0.00,meteohub,2013-09-18 22:46:00,
2013-09-18 18:51:00,66.2,49.1,30.19,WNW,292,0.0,0.0,54,0.00,,,0.00,meteohub,2013-09-18 22:51:00,
2013-09-18 18:56:00,65.8,48.7,30.19,WNW,292,0.0,0.0,54,0.00,,,0.00,meteohub,2013-09-18 22:56:00,
2013-09-18 19:01:00,65.5,49.8,30.19,WNW,292,0.0,0.0,57,0.00,,,0.00,meteohub,2013-09-18 23:01:00,
2013-09-18 19:06:00,65.3,50.2,30.19,WNW,292,0.0,0.0,58,0.00,,,0.00,meteohub,2013-09-18 23:06:00,
2013-09-18 19:11:00,64.8,50.5,30.19,WNW,292,0.0,0.0,60,0.00,,,0.00,meteohub,2013-09-18 23:11:00,
2013-09-18 19:16:00,64.2,50.9,30.19,WNW,292,0.0,0.0,62,0.00,,,0.00,meteohub,2013-09-18 23:16:00,
2013-09-18 19:21:00,63.7,50.0,30.19,WNW,292,0.0,0.0,61,0.00,,,0.00,meteohub,2013-09-18 23:21:00,
2013-09-18 19:26:00,63.3,50.0,30.19,WNW,292,0.0,0.0,62,0.00,,,0.00,meteohub,2013-09-18 23:26:00,
2013-09-18 19:31:00,62.8,50.0,30.19,WNW,292,0.0,0.0,63,0.00,,,0.00,meteohub,2013-09-18 23:31:00,
2013-09-18 19:36:00,62.2,50.4,30.19,WNW,292,0.0,0.0,65,0.00,,,0.00,meteohub,2013-09-18 23:36:00,
2013-09-18 19:42:00,61.9,50.4,30.19,WNW,292,0.0,0.0,66,0.00,,,0.00,meteohub,2013-09-18 23:42:00,
2013-09-18 19:47:00,61.5,50.0,30.19,WNW,292,0.0,0.0,66,0.00,,,0.00,meteohub,2013-09-18 23:47:00,
2013-09-18 19:52:00,61.3,50.4,30.19,WNW,292,0.0,0.0,67,0.00,,,0.00,meteohub,2013-09-18 23:52:00,
2013-09-18 19:57:00,61.0,50.4,30.19,WNW,292,0.0,0.0,68,0.00,,,0.00,meteohub,2013-09-18 23:57:00,
2013-09-18 20:02:00,60.6,50.0,30.19,WNW,292,0.0,0.0,68,0.00,,,0.00,meteohub,2013-09-19 00:02:00,
2013-09-18 20:07:00,60.3,50.0,30.19,WNW,292,0.0,0.0,69,0.00,,,0.00,meteohub,2013-09-19 00:07:00,
2013-09-18 20:12:00,59.9,49.6,30.19,WNW,292,0.0,0.0,69,0.00,,,0.00,meteohub,2013-09-19 00:12:00,
2013-09-18 20:17:00,59.5,49.3,30.19,WNW,292,0.0,0.0,69,0.00,,,0.00,meteohub,2013-09-19 00:17:00,
2013-09-18 20:22:00,59.2,49.8,30.19,WNW,292,0.0,0.0,71,0.00,,,0.00,meteohub,2013-09-19 00:22:00,
2013-09-18 20:27:00,59.0,50.0,30.19,WNW,292,0.0,0.0,72,0.00,,,0.00,meteohub,2013-09-19 00:27:00,
2013-09-18 20:32:00,58.6,50.0,30.19,WNW,292,0.0,0.0,73,0.00,,,0.00,meteohub,2013-09-19 00:32:00,
2013-09-18 20:37:00,58.6,50.4,30.19,WNW,292,0.0,0.0,74,0.00,,,0.00,meteohub,2013-09-19 00:37:00,
2013-09-18 20:43:00,58.3,50.0,30.22,WNW,292,0.0,0.0,74,0.00,,,0.00,meteohub,2013-09-19 00:43:00,
2013-09-18 20:48:00,58.1,49.8,30.22,WNW,292,0.0,0.0,74,0.00,,,0.00,meteohub,2013-09-19 00:48:00,
2013-09-18 20:53:00,58.1,49.8,30.22,WNW,292,0.0,0.0,74,0.00,,,0.00,meteohub,2013-09-19 00:53:00,
2013-09-18 20:58:00,57.9,50.0,30.22,WNW,292,0.0,0.0,75,0.00,,,0.00,meteohub,2013-09-19 00:58:00,
2013-09-18 21:03:00,57.7,50.2,30.22,WNW,292,0.0,0.0,76,0.00,,,0.00,meteohub,2013-09-19 01:03:00,
2013-09-18 21:09:00,57.7,50.2,30.22,WNW,292,0.0,0.0,76,0.00,,,0.00,meteohub,2013-09-19 01:09:00,
2013-09-18 21:14:00,57.6,50.4,30.22,WNW,292,0.0,0.0,77,0.00,,,0.00,meteohub,2013-09-19 01:14:00,
2013-09-18 21:19:00,57.4,50.2,30.22,WNW,292,0.0,0.0,77,0.00,,,0.00,meteohub,2013-09-19 01:19:00,
2013-09-18 21:24:00,57.2,50.0,30.22,WNW,292,0.0,0.0,77,0.00,,,0.00,meteohub,2013-09-19 01:24:00,
2013-09-18 21:29:00,57.0,50.2,30.22,WNW,292,0.0,0.0,78,0.00,,,0.00,meteohub,2013-09-19 01:29:00,
2013-09-18 21:34:00,57.0,50.2,30.22,WNW,292,0.0,0.0,78,0.00,,,0.00,meteohub,2013-09-19 01:34:00,
2013-09-18 21:39:00,56.8,50.4,30.22,WNW,292,0.0,0.0,79,0.00,,,0.00,meteohub,2013-09-19 01:39:00,
2013-09-18 21:44:00,56.7,50.5,30.22,WNW,292,0.0,0.0,80,0.00,,,0.00,meteohub,2013-09-19 01:44:00,
2013-09-18 21:49:00,56.7,50.9,30.22,WNW,292,0.0,0.0,81,0.00,,,0.00,meteohub,2013-09-19 01:49:00,
2013-09-18 21:54:00,56.5,50.7,30.22,WNW,292,0.0,0.0,81,0.00,,,0.00,meteohub,2013-09-19 01:54:00,
2013-09-18 21:59:00,56.3,50.5,30.22,WNW,292,0.0,0.0,81,0.00,,,0.00,meteohub,2013-09-19 01:59:00,
2013-09-18 22:04:00,56.1,50.4,30.22,WNW,292,0.0,0.0,81,0.00,,,0.00,meteohub,2013-09-19 02:04:00,
2013-09-18 22:09:00,55.9,50.2,30.22,WNW,292,0.0,0.0,81,0.00,,,0.00,meteohub,2013-09-19 02:09:00,
2013-09-18 22:14:00,55.9,50.5,30.22,WNW,292,0.0,0.0,82,0.00,,,0.00,meteohub,2013-09-19 02:14:00,
2013-09-18 22:19:00,55.8,50.7,30.22,WNW,292,0.0,0.0,83,0.00,,,0.00,meteohub,2013-09-19 02:19:00,
2013-09-18 22:24:00,55.6,50.9,30.22,WNW,292,0.0,0.0,84,0.00,,,0.00,meteohub,2013-09-19 02:24:00,
2013-09-18 22:29:00,55.4,50.7,30.22,WNW,292,0.0,0.0,84,0.00,,,0.00,meteohub,2013-09-19 02:29:00,
2013-09-18 22:35:00,55.4,50.9,30.22,WNW,292,0.0,0.0,85,0.00,,,0.00,meteohub,2013-09-19 02:35:00,
2013-09-18 22:40:00,55.2,50.7,30.22,WNW,292,0.0,0.0,85,0.00,,,0.00,meteohub,2013-09-19 02:40:00,
2013-09-18 22:45:00,55.2,51.1,30.22,WNW,292,0.0,0.0,86,0.00,,,0.00,meteohub,2013-09-19 02:45:00,
2013-09-18 22:50:00,55.2,51.1,30.22,WNW,292,0.0,0.0,86,0.00,,,0.00,meteohub,2013-09-19 02:50:00,
2013-09-18 22:55:00,55.2,51.1,30.22,WNW,292,0.0,0.0,86,0.00,,,0.00,meteohub,2013-09-19 02:55:00,
2013-09-18 23:00:00,55.4,51.3,30.22,WNW,292,0.0,0.0,86,0.00,,,0.00,meteohub,2013-09-19 03:00:00,
2013-09-18 23:05:00,55.2,51.4,30.22,WNW,292,0.0,0.0,87,0.00,,,0.00,meteohub,2013-09-19 03:05:00,
2013-09-18 23:10:00,55.2,51.4,30.22,WNW,292,0.0,0.0,87,0.00,,,0.00,meteohub,2013-09-19 03:10:00,
2013-09-18 23:15:00,55.2,51.4,30.22,WNW,292,0.0,0.0,87,0.00,,,0.00,meteohub,2013-09-19 03:15:00,
2013-09-18 23:20:00,55.2,51.8,30.22,WNW,292,0.0,0.0,88,0.00,,,0.00,meteohub,2013-09-19 03:20:00,
2013-09-18 23:26:00,55.0,51.6,30.22,WNW,292,0.0,0.0,88,0.00,,,0.00,meteohub,2013-09-19 03:26:00,
2013-09-18 23:31:00,54.9,51.4,30.22,WNW,292,0.0,0.0,88,0.00,,,0.00,meteohub,2013-09-19 03:31:00,
2013-09-18 23:36:00,54.7,51.4,30.22,WNW,292,0.0,0.0,89,0.00,,,0.00,meteohub,2013-09-19 03:36:00,
2013-09-18 23:41:00,54.7,51.4,30.19,WNW,292,0.0,0.0,89,0.00,,,0.00,meteohub,2013-09-19 03:41:00,
2013-09-18 23:47:00,54.7,51.4,30.19,WNW,292,0.0,0.0,89,0.00,,,0.00,meteohub,2013-09-19 03:47:00,
2013-09-18 23:52:00,54.7,51.4,30.19,WNW,292,0.0,0.0,89,0.00,,,0.00,meteohub,2013-09-19 03:52:00,
2013-09-18 23:57:00,54.7,51.8,30.22,WNW,292,0.0,0.0,90,0.00,,,0.00,meteohub,2013-09-19 03:57:00,